[[{"header":{"parameterUnit":"m.s-1","parameterCategory":1,"la1":30.2992,"la2":30.254,"lo1":-89.0895,"lo2":-89.0443,"dy":0.0025,"dx":0.0025,"nx":19,"ny":19,"refTime":"2026-03-17T03:00:00:Z","depth":0,"parameterNumber":2,"parameterNumberName":"U-component_of_WINDS"},"data":[0,0,0,1.45,1.4501,1.4527,1.4527,1.4559,1.4559,0,0,0,0,0,0,0,0,0,0,0,1.4492,1.4492,1.45,1.4501,1.4527,1.4527,1.4559,1.4559,0,0,0,0,0,0,0,0,0,0,0,1.4492,1.4492,1.4492,1.4501,1.4527,1.4527,1.4559,1.454,0,0,0,0,0,0,0,0,0,0,1.4515,1.4506,1.4492,1.4492,1.4501,1.4526,1.4527,1.4539,1.4541,1.4547,0,1.4552,0,1.4556,1.4562,1.4562,0,0,0,1.4502,1.4505,1.4512,1.4493,1.4501,1.4526,1.4515,1.454,1.4543,1.455,1.4553,1.4554,1.4557,1.4562,1.4562,1.4596,1.4596,0,0,1.45,1.4496,1.4511,1.4514,1.4509,1.4514,1.4516,1.4542,1.4544,1.4553,1.4555,1.4557,1.4562,1.4562,1.4596,1.4596,0,0,0,1.4496,1.4495,1.4502,1.4513,1.4517,1.4515,1.4517,1.4543,1.4546,1.4555,1.4558,1.4562,1.4563,1.4596,1.4596,1.4599,0,0,0,1.4495,1.4493,1.4502,1.4499,1.4517,1.453,1.4518,1.4544,1.4547,1.4558,1.4562,1.4563,1.4596,1.4596,1.4599,1.46,0,0,0,1.4491,1.4492,1.4496,1.4499,1.451,1.453,1.4534,1.4545,1.4549,1.4562,1.4563,1.4596,1.4596,1.4598,1.46,1.4608,0,0,0,1.4485,1.4497,1.4496,1.451,1.451,1.4532,1.4534,1.455,1.4562,1.4562,1.4596,1.4596,1.4598,1.4599,1.4608,1.4614,1.4617,0,0,1.4498,1.4498,1.4507,1.4507,1.4528,1.4528,1.455,1.4564,1.4569,1.4587,1.4588,1.4599,1.46,1.4608,1.4633,1.4635,0,0,0,1.451,1.4517,1.4523,1.4534,1.4546,1.4557,1.4568,1.4574,1.459,1.4577,1.4605,1.4605,1.4611,1.4614,1.4615,1.462,1.4598,1.4598,1.4598,1.4521,1.4528,1.4544,1.4554,1.4565,1.4578,1.4588,1.4598,1.4601,1.4607,1.4612,1.4627,1.463,1.4631,1.4636,1.4617,1.4617,1.4617,1.4617,1.4541,1.4551,1.4556,1.4573,1.4581,1.4596,1.461,1.4612,1.4627,1.4623,1.4628,1.4622,1.4633,1.4638,1.4617,1.4617,1.4617,1.4617,1.4617,1.4548,1.4554,1.4562,1.458,1.4593,1.4604,1.4619,1.4625,1.4632,1.4637,1.4643,1.4643,1.4643,1.4639,1.464,1.464,1.464,1.464,1.464,1.4552,1.4561,1.4572,1.4588,1.4597,1.4609,1.4625,1.4634,1.4646,1.4649,1.465,1.4652,1.4634,1.4628,1.464,1.464,1.464,1.464,1.464,1.4567,1.4565,1.4583,1.4592,1.4612,1.4626,1.4635,1.4654,1.4663,1.467,1.4673,1.4658,1.4659,1.4657,1.4653,1.4671,1.4671,1.4671,1.4671,1.4573,1.4575,1.4595,1.461,1.4625,1.4636,1.4657,1.467,1.4683,1.4689,1.4688,1.4683,1.4682,1.4683,1.4682,1.4678,1.4701,1.4701,1.4701,1.4583,1.4587,1.4602,1.4615,1.4632,1.4647,1.4667,1.4684,1.4699,1.4703,1.4694,1.4693,1.4686,1.4683,1.4684,1.4681,1.4674,0,0]},{"header":{"parameterUnit":"m.s-1","parameterCategory":1,"la1":30.2992,"la2":30.254,"lo1":-89.0895,"lo2":-89.0443,"dy":0.0025,"dx":0.0025,"nx":19,"ny":19,"refTime":"2026-03-17T03:00:00:Z","depth":0,"parameterNumber":3,"parameterNumberName":"V-component_of_WINDS"},"data":[0,0,0,-6.8114,-6.8121,-6.8438,-6.8439,-6.8852,-6.8855,0,0,0,0,0,0,0,0,0,0,0,-6.8028,-6.8031,-6.8113,-6.8121,-6.8438,-6.8439,-6.8851,-6.8855,0,0,0,0,0,0,0,0,0,0,0,-6.8027,-6.803,-6.8034,-6.8123,-6.8438,-6.844,-6.885,-6.8607,0,0,0,0,0,0,0,0,0,0,-6.8298,-6.8228,-6.8029,-6.8034,-6.8125,-6.8438,-6.844,-6.8596,-6.8623,-6.8712,0,-6.8798,0,-6.8833,-6.8884,-6.8885,0,0,0,-6.8114,-6.8206,-6.8284,-6.8035,-6.8128,-6.8437,-6.8293,-6.861,-6.8641,-6.8748,-6.8803,-6.8818,-6.884,-6.8887,-6.8889,-6.9438,-6.944,0,0,-6.8097,-6.8089,-6.8263,-6.8304,-6.826,-6.8283,-6.8303,-6.8629,-6.8687,-6.8805,-6.8828,-6.8847,-6.8889,-6.8893,-6.9435,-6.9438,0,0,0,-6.8051,-6.8077,-6.8147,-6.8288,-6.8344,-6.8292,-6.8316,-6.8673,-6.8696,-6.8832,-6.8852,-6.8892,-6.8897,-6.9432,-6.9436,-6.9573,0,0,0,-6.804,-6.805,-6.814,-6.8138,-6.8339,-6.8514,-6.8352,-6.8674,-6.8711,-6.885,-6.8892,-6.8901,-6.9429,-6.9434,-6.9562,-6.9639,0,0,0,-6.8004,-6.8046,-6.8095,-6.8137,-6.8273,-6.8509,-6.8551,-6.8682,-6.8724,-6.8886,-6.8902,-6.9426,-6.9433,-6.9553,-6.9623,-6.9781,0,0,0,-6.7963,-6.8211,-6.8097,-6.8382,-6.8271,-6.8592,-6.8549,-6.8788,-6.8943,-6.8894,-6.9429,-6.9436,-6.955,-6.9614,-6.9771,-6.9912,-6.9971,0,0,-6.8272,-6.8248,-6.8416,-6.8323,-6.8663,-6.8544,-6.8903,-6.9051,-6.9071,-6.9313,-6.9327,-6.9566,-6.9622,-6.9779,-7.0301,-7.0347,0,0,0,-6.8511,-6.8632,-6.8723,-6.8873,-6.8994,-6.9102,-6.9197,-6.9251,-6.9457,-6.9196,-6.9666,-6.9699,-6.9791,-6.9859,-6.9899,-6.9977,-6.9467,-6.9466,-6.9465,-6.8936,-6.8952,-6.923,-6.9283,-6.9428,-6.9523,-6.964,-6.9729,-6.97,-6.9811,-6.9883,-7.0199,-7.0278,-7.0308,-7.0389,-6.9959,-6.9959,-6.996,-6.996,-6.9389,-6.9562,-6.9519,-6.9774,-6.9787,-6.9999,-7.0099,-7.0071,-7.0269,-7.0146,-7.0227,-7.0092,-7.0358,-7.043,-6.9971,-6.9969,-6.9968,-6.9967,-6.9966,-6.967,-6.9755,-6.9819,-7.0035,-7.0199,-7.0242,-7.0435,-7.0439,-7.0444,-7.0525,-7.06,-7.0598,-7.0595,-7.056,-7.0562,-7.0563,-7.0564,-7.0564,-7.0565,-6.9935,-7.0002,-7.0166,-7.0315,-7.041,-7.0536,-7.0632,-7.0725,-7.0828,-7.0816,-7.0817,-7.0776,-7.0382,-7.0283,-7.0582,-7.0579,-7.0577,-7.0575,-7.0574,-7.0389,-7.0287,-7.0539,-7.0635,-7.0809,-7.097,-7.0973,-7.1162,-7.1238,-7.1332,-7.1275,-7.0983,-7.0958,-7.0927,-7.0844,-7.1271,-7.1271,-7.1271,-7.1272,-7.0625,-7.0613,-7.0872,-7.1024,-7.1174,-7.1202,-7.1483,-7.1559,-7.1621,-7.1668,-7.1607,-7.1498,-7.1466,-7.146,-7.1417,-7.134,-7.1884,-7.1885,-7.1885,-7.0904,-7.0907,-7.1148,-7.121,-7.1345,-7.146,-7.1724,-7.1897,-7.1945,-7.191,-7.1705,-7.1679,-7.1504,-7.1446,-7.1406,-7.134,-7.1199,0,0]}]]